www.pogodaiklimat.ru

Погода и климат >> Архив погоды >> Багамские Острова >> Nassau


АРХИВ ПОГОДЫ в Nassau

Время (UTC), дата Ветер
(напр.,м/с)
 
Видим.   Явления Облачность Т
(С)
Тd
(С)
f
(%)
Тe
(С)
Тes
(С)
Комфортность P
(гПа)
Po
(гПа)
Тmin
(С)
Tmax
(С)
R
(мм)
R24
(мм)
S
(см)
00 18.04 С 2 15 км 4/4 1200 м
[Sc]
+23.0 +15.6 63 +27 +27 душно 1018.3 1018.0 +20.2 +26.7
03 18.04 СВ 2 13 км 6/6 600 м
[Cu Sc]
+23.2 +15.6 62 +27 +27 душно 1019.7 1020.0
06 18.04 штиль 0 13 км 6/6 600 м
[Cu Sc]
+21.4 +17.1 76 +25 +25 комфорт 1019.0 1019.0
09 18.04 штиль 0 13 км 4/4 600 м
[Cu Sc]
+18.4 +14.6 79 +19 +19 прохладно 1018.0 1018.0
12 18.04 штиль 0 15 км 4/4 1050 м
[Sc]
+20.0 +16.8 82 +22 +24 комфорт 1020.1 1020.0 +17.0 +26.7
15 18.04 В 4 15 км 3/3 1050 м
[Sc]
+26.0 +16.5 56 +30 +38 душно 1020.8 1021.0
21 18.04 С 4 15 км 1/1 750 м
[Cu hum]
+27.0 +17.7 57 +31 +36 душно 1019.4 1019.0
00 19.04 СВ 3 15 км 3/3 750 м
[Cu Sc]
+23.0 +18.6 76 +29 +29 очень
душно
1019.8 1020.0 +17.0 +27.4
03 19.04 В 3 15 км 1/1 750 м
[Cu Sc]
+23.0 +17.0 69 +28 +28 душно 1020.3 1020.0
06 19.04 СВ 2 15 км 1/1 750 м
[Cu hum]
+21.4 +17.8 80 +26 +26 душно 1019.0 1019.0
09 19.04 штиль 0 15 км 3/3 750 м
[Cu Sc]
+20.5 +18.2 87 +24 +24 комфорт 1018.5 1019.0
12 19.04 штиль 0 15 км 4/4 750 м
[Cu Sc]
+23.9 +20.8 83 +30 +31 очень
душно
1019.7 1020.0 +19.4 +27.6
15 19.04 В 2 13 км 6/6 600 м
[Cu Sc]
+28.8 +21.7 66 +37 +43 очень
душно
1020.4 1020.0
18 19.04 СВ 4 13 км 6/6 600 м
[Cu Sc]
+27.1 +23.0 78 +36 +41 очень
душно
1019.8 1020.0
21 19.04 ЮВ 3 15 км 8/8 600 м
[Cu Sc Ci ing]
+28.0 +23.6 77 +38 +40 очень
душно
1018.5 1019.0
00 20.04 штиль 0 15 км {ливн. осадки} 8/8 480 м
[Cu Sc Ci fib]
+25.0 +23.6 92 +34 +34 очень
душно
1018.9 1019.0 +19.4 +29.5 1
03 20.04 штиль 0 15 км 6/5 600 м
[Cu med, cong Ci fib]
+25.0 +23.6 92 +34 +34 очень
душно
1020.3 1020.0
06 20.04 ЮВ 2 15 км 5/4 540 м
[Cu med, cong Ci fib]
+25.0 +17.8 64 +29 +29 душно 1018.9 1019.0
09 20.04 штиль 0 15 км 5/4 540 м
[Cu med, cong Ci fib]
+24.5 +22.3 88 +32 +32 очень
душно
1018.0 1018.0
12 20.04 штиль 0 15 км 9/3 540 м
[Cu med, cong Ac lent Cs]
+24.8 +23.4 92 +33 +34 очень
душно
1019.1 1019.0 +22.5 +29.5
15 20.04 штиль 0 15 км 9/4 600 м
[Cu med, cong Cs]
+28.9 +24.3 76 +40 +51 опасность
солнечного
удара
1019.7 1020.0
18 20.04 СВ 3 13 км осадки на расстоянии 9/4 480 м
[Cu med, cong Cs]
+28.1 +23.7 77 +39 +48 очень
душно
1019.6 1020.0
21 20.04 С 3 15 км 5/3 600 м
[Cu hum Ci sp]
+29.5 +23.0 68 +39 +43 очень
душно
1018.2 1018.0
03 21.04 штиль 0 15 км 3/3 540 м
[Cu med, cong]
+25.0 +23.6 92 +34 +34 очень
душно
1020.4 1020.0
06 21.04 СВ 2 15 км 3/3 540 м
[Cu med, cong]
+24.0 +22.7 92 +31 +31 очень
душно
1019.3 1019.0
09 21.04 В 2 15 км 3/3 540 м
[Cu hum]
+24.9 +22.6 87 +33 +33 очень
душно
1018.3 1018.0
12 21.04 В 3 15 км 4/4 480 м
[Cb cap]
+25.9 +23.4 86 +35 +36 очень
душно
1019.3 1019.0 +22.9 +29.8
15 21.04 В 5 15 км 8/6 540 м
[Cu med, cong Ci ing]
+29.1 +23.3 71 +39 +42 очень
душно
1019.9 1020.0
18 21.04 СВ 4 15 км {ливн. осадки} 8/6 450 м
[Cb cap Ci ing]
+29.1 +24.0 74 +40 +46 очень
душно
1019.1 1019.0 3
21 21.04 В 6 13 км осадки на расстоянии 8/5 450 м
[Cb cap Ci ing]
+29.2 +23.7 72 +40 +41 очень
душно
1017.9 1018.0
00 22.04 СВ 3 13 км 6/4 480 м
[Cb cap Ci ing]
+27.0 +23.1 79 +36 +36 очень
душно
1018.9 1019.0 +22.9 +29.6
03 22.04 СВ 3 15 км {ливн. осадки} 5/3 750 м
[Cu Sc Ci fib]
+26.0 +22.9 83 +35 +35 очень
душно
1019.8 1020.0
06 22.04 В 2 15 км {ливн. осадки} 3/3 600 м
[Cu hum Ci fib]
+25.0 +21.4 80 +32 +32 очень
душно
1018.7 1019.0 0.5
09 22.04 В 2 15 км 3/3 600 м
[Cu hum Ci fib]
+25.0 +22.5 86 +33 +33 очень
душно
1017.7 1018.0
12 22.04 В 3 15 км в посл. час ливневой дождь 8/6 360 м
[Cb cap Ci fib]
+25.8 +23.2 86 +35 +35 очень
душно
1019.3 1019.0 +23.5 +29.6 1
15 22.04 В 4 13 км осадки на расстоянии {ливн. осадки} 8/6 360 м
[Cb cap Ci fib]
+25.2 +22.0 82 +32 +37 очень
душно
1020.2 1020.0
18 22.04 В 5 13 км {ливн. осадки} 8/6 540 м
[Cu Sc Ci fib]
+29.2 +23.1 70 +39 +43 очень
душно
1019.0 1019.0 0.1
21 22.04 В 3 11 км гроза, ливневой дождь 9/8 450 м
[Cb cap Ac As Ci ing]
+25.8 +23.3 86 +35 +36 очень
душно
1017.7 1018.0
00 23.04 В 3 11 км {гроза, ливн. осадки} 9/5 600 м
[Cu med, cong Ac As Ci ing]
+26.1 +22.6 81 +34 +34 очень
душно
1018.2 1018.0 +23.5 +29.2 0.0
03 23.04 В 3 13 км 9/5 600 м
[Cu med, cong Ac As Ci sp]
+25.7 +22.5 83 +34 +34 очень
душно
1018.9 1019.0
06 23.04 В 4 13 км слабый ливневой дождь 9/5 540 м
[Cu med, cong Ac As Ci sp]
+25.2 +23.1 88 +34 +34 очень
душно
1017.6 1018.0 0.7
09 23.04 В 2 15 км {ливн. осадки} 5/5 540 м
[Cu med, cong Ci sp]
+25.1 +22.1 83 +32 +32 очень
душно
1016.8 1017.0
12 23.04 В 3 15 км 5/4 480 м
[Cb cap Ci sp]
+25.6 +21.5 78 +33 +34 очень
душно
1018.6 1019.0 +22.1 +29.2
15 23.04 В 5 15 км 6/6 600 м
[Cu med, cong Ci sp]
+28.8 +23.2 72 +39 +43 очень
душно
1019.5 1020.0
18 23.04 В 5 15 км 6/6 600 м
[Cu Sc As op]
+30.0 +23.1 67 +40 +44 очень
душно
1018.3 1018.0
21 23.04 ЮВ 8 15 км 9/6 360 м
[Cb cap Ci sp]
+28.8 +23.4 73 +39 +40 очень
душно
1016.5 1017.0
00 24.04 В 2 13 км 9/4 600 м
[Cu Sc As trans Ci sp]
+27.0 +22.8 78 +36 +36 очень
душно
1017.5 1018.0 +23.0 +30.0
03 24.04 ЮВ 3 13 км в посл. час ливневой дождь 5/5 660 м
[Cu Sc Ci sp]
+26.2 +23.2 84 +35 +35 очень
душно
1017.9 1018.0
06 24.04 ЮВ 3 13 км {ливн. осадки} 5/5 660 м
[Cu Sc]
+26.1 +22.7 82 +35 +35 очень
душно
1016.1 1016.0 3
09 24.04 ЮВ 5 13 км 4/4 660 м
[Cu Sc]
+26.1 +22.5 81 +34 +34 очень
душно
1015.3 1015.0
12 24.04 ЮВ 3 9000 м осадки на расстоянии 9/6 480 м
[Cb cap Ac cuf Ci ing]
+26.4 +22.3 78 +34 +35 очень
душно
1017.1 1017.0 +22.8 +29.5
15 24.04 Ю 4 13 км 9/6 540 м
[Cb cap Ac cuf Ci ing]
+29.0 +20.9 62 +36 +39 очень
душно
1017.7 1018.0
18 24.04 Ю 6 13 км 8/5 540 м
[Cb cap Ac cuf Ci ing]
+30.0 +22.9 66 +40 +43 очень
душно
1016.0 1016.0

 

Местоположение метеостанции Nassau (Багамские Острова): широта 25.05 долгота -77.46 высота над уровнем моря 7 м.

В архиве по умолчанию представлена погода в Nassau за последнюю неделю. Архивные данные за месяц целиком и за предыдущие месяцы, начиная с января 2011 года, Вы можете получить, выбрав интересующий диапазон дат из раскрывающегося списка и нажав кнопку "Ввод!".


*Определитесь, кто Вы:
робот инопланетянин человек

Внимание! Время в таблицах - всемирное. Для получения местного времени необходимо прибавить поправку, которая в Nassau равна -4 ч.

Смотрите также архив погоды в соседних городах и на ближайших метеорологических станциях:

Погода в Grand Bahama (Багамские Острова) (208 км)
Погода в Cayo Coco (Куба) (295 км)
Погода в Caibarien (Куба) (347 км)
Погода в El Yabu (Куба) (385 км)
Погода в Nuevitas (Куба) (392 км)
Погода в Sancti Spiritus (Куба) (402 км)
Погода в Camaguey airport (Куба) (406 км)
Погода в Jucaro (Куба) (407 км)
Погода в Camaguey (Куба) (408 км)
Погода в Puerto Padre (Куба) (437 км)

Пояснения к столбцам:

Ветер - указаны скорость ветра в м/с - средняя за 10 мин, порывы в срок и между сроками (в фигурных скобках) и направление, откуда дует ветер: С - северный, СВ - северо-восточный, В - восточный, ЮВ - юго-восточный, Ю - южный, ЮЗ - юго-западный, З - западный, СЗ - северо-западный.
Видимость - горизонтальная дальность видимости в метрах или километрах. При видимости от 1 до 10 км при отсутствии осадков обычно наблюдается дымка, при ухудшении видимости до 1 км и менее - туман. В сухую погоду видимость может ухудшаться дымом, пылью или мглою.
Явления - указаны атмосферные явления, наблюдавшиеся в срок или в последний час перед сроком; фигурными скобками обозначены явления, наблюдавшиеся между сроками (за 1-3 часа до срока); квадратными скобками обозначены град или гололедные отложения с указанием их диаметра в мм.
Облачность - указаны через наклонную черту общая и нижняя облачность в баллах и высота нижней границы облаков в метрах; квадратными скобками обозначены формы облаков: Ci - перистые, Cs - перисто-слоистые, Cc - перисто-кучевые, Ac - высококучевые, As - высокослоистые, Sc - слоисто-кучевые, Ns - слоисто-дождевые, Cu - кучевые, Cb - кучево-дождевые. Подробнее классификацию облаков см. в Атласе облаков (PDF).
T - Температура воздуха - температура, измеренная на высоте 2 м над землей.
Td - Температура точки росы - температура, при понижении до которой содержащийся в воздухе водяной пар достигнет насыщения.
f - Относительная влажность воздуха - влажноcть воздуха, измеренная на высоте 2 м над землей.
Te - Эффективная температура - температура, которую ощущает одетый по сезону человек в тени. Характеристика душности погоды. При расчете учитывается влияние влажности воздуха и скорости ветра на теплоощущения человека.
Tes - Эффективная температура на солнце - температура, которую ощущает человек, с поправкой на солнечный нагрев. Характеристика знойности погоды. Зависит от высоты солнца над горизонтом, облачности и скорости ветра. Ночью, в пасмурную погоду, а также при ветре 12 м/с и более поправка равна нулю.
P - Атмосферное давление - приведенное к уровню моря атмосферное давление.
Po - Атмосферное давление - измеренное на уровне метеостанции атмосферное давление.
Tmin - Минимальная температура - минимум температуры воздуха на высоте 2 м над землей.
Tmax - Максимальная температура - максимум температуры воздуха на высоте 2 м над землей.
R - Количество осадков - Количество выпавших осадков за период времени, мм. При наведении курсора мыши на число - период времени, за который выпало указанное количество осадков.
R24 - Количество осадков - Количество выпавших осадков за 24 часа, мм.
S - Снежный покров - Высота снежного покрова, см. При наведении курсора мыши на число - состояние снежного покрова и степень покрытия местности в баллах.